| time (UTC) | temp F | wind direction | speed knots | gust knots | rain 1hr in | rain 24hr in | rain mn in | humidity % | barometer mb |
| 20260506163205 | 69 | 267 | 5.2 | 12.2 | 0.00 | 0.27 | 0.01 | 43 | 1009.0 |
| 20260506160705 | 69 | 260 | 5.2 | 10.4 | 0.00 | 0.27 | 0.01 | 46 | 1009.0 |
| 20260506160205 | 69 | 214 | 0.9 | 13.9 | 0.00 | 0.27 | 0.01 | 46 | 1008.9 |
| 20260506153704 | 69 | 253 | 3.5 | 8.7 | 0.00 | 0.27 | 0.01 | 47 | 1008.8 |
| 20260506130704 | 68 | 306 | 7.8 | 11.3 | 0.00 | 0.27 | 0.01 | 49 | 1010.1 |
| 20260506123705 | 66 | 302 | 1.7 | 13.0 | 0.00 | 0.27 | 0.01 | 51 | 1010.3 |
| 20260506123205 | 67 | 260 | 5.2 | 12.2 | 0.00 | 0.27 | 0.01 | 50 | 1010.3 |
| 20260506120704 | 66 | 276 | 4.3 | 11.3 | 0.00 | 0.27 | 0.01 | 52 | 1010.3 |
| 20260506113204 | 65 | 319 | 0.0 | 13.9 | 0.00 | 0.27 | 0.01 | 54 | 1010.4 |
| 20260506110705 | 64 | 264 | 1.7 | 11.3 | 0.00 | 0.27 | 0.01 | 55 | 1010.9 |
| 20260506100704 | 61 | 276 | 6.1 | 11.3 | 0.00 | 0.27 | 0.01 | 65 | 1011.2 |
| 20260506093704 | 59 | 275 | 6.1 | 11.3 | 0.00 | 0.27 | 0.01 | 68 | 1011.4 |
| 20260506093204 | 59 | 255 | 5.2 | 13.9 | 0.00 | 0.27 | 0.01 | 69 | 1011.5 |
| 20260506083704 | 55 | 229 | 6.1 | 11.3 | 0.00 | 0.27 | 0.01 | 78 | 1011.5 |
| 20260506080704 | 52 | 209 | 3.5 | 8.7 | 0.00 | 0.27 | 0.01 | 83 | 1011.5 |
| 20260506073204 | 51 | 240 | 2.6 | 10.4 | 0.00 | 0.27 | 0.01 | 85 | 1011.5 |
| 20260506070703 | 50 | 256 | 2.6 | 7.8 | 0.00 | 0.27 | 0.01 | 84 | 1011.6 |
| 20260506070204 | 50 | 251 | 0.0 | 8.7 | 0.00 | 0.27 | 0.01 | 84 | 1011.5 |
| 20260506060704 | 48 | 241 | 0.0 | 0.0 | 0.00 | 0.27 | 0.01 | 84 | 1011.4 |
| 20260506060203 | 48 | 305 | 0.0 | 0.0 | 0.00 | 0.27 | 0.01 | 84 | 1011.3 |
| 20260506050703 | 43 | 86 | 0.0 | 0.0 | 0.00 | 0.27 | 0.01 | 85 | 1011.0 |
| 20260506050204 | 42 | 86 | 0.0 | 0.0 | 0.00 | 0.27 | 0.01 | 85 | 1010.8 |
| 20260506043204 | 45 | 236 | 0.0 | 7.8 | 0.00 | 0.28 | 0.01 | 85 | 1010.1 |
| 20260506040703 | 45 | 110 | 0.0 | 0.0 | 0.00 | 0.28 | 0.01 | 85 | 1010.0 |
| 20260506033703 | 45 | 19 | 0.0 | 0.0 | 0.00 | 0.28 | 0.01 | 84 | 1009.9 |
| 20260506033203 | 45 | 19 | 0.0 | 0.0 | 0.00 | 0.28 | 0.01 | 85 | 1009.9 |
| 20260506030704 | 46 | 279 | 0.0 | 0.0 | 0.00 | 0.28 | 0.01 | 85 | 1009.8 |
| 20260506023204 | 45 | 269 | 0.0 | 0.0 | 0.00 | 0.28 | 0.01 | 85 | 1009.7 |
| 20260506020203 | 45 | 95 | 0.0 | 0.0 | 0.00 | 0.28 | 0.01 | 84 | 1009.6 |
| 20260506013704 | 44 | 346 | 0.0 | 0.0 | 0.00 | 0.28 | 0.01 | 85 | 1009.7 |
| 20260506013203 | 44 | 346 | 0.0 | 0.0 | 0.00 | 0.28 | 0.01 | 85 | 1009.7 |
| 20260506010203 | 45 | 345 | 0.0 | 0.0 | 0.00 | 0.28 | 0.01 | 85 | 1009.7 |
| 20260506003203 | 46 | 346 | 0.0 | 0.0 | 0.01 | 0.28 | 0.01 | 84 | 1010.0 |
| 20260505233702 | 48 | 345 | 0.0 | 0.0 | 0.00 | 0.27 | 0.00 | 84 | 1010.0 |
| 20260505233203 | 48 | 350 | 0.0 | 0.0 | 0.00 | 0.27 | 0.00 | 86 | 1010.0 |
| 20260505223203 | 49 | 350 | 0.0 | 0.0 | 0.00 | 0.27 | 0.00 | 85 | 1010.1 |
| 20260505220704 | 49 | 301 | 0.0 | 0.0 | 0.00 | 0.27 | 0.00 | 85 | 1010.5 |
| 20260505220202 | 49 | 301 | 0.0 | 0.0 | 0.00 | 0.27 | 0.00 | 85 | 1010.6 |
| 20260505213702 | 51 | 266 | 0.0 | 0.0 | 0.00 | 0.27 | 0.27 | 85 | 1010.5 |
| 20260505213203 | 51 | 266 | 0.0 | 0.0 | 0.00 | 0.27 | 0.27 | 85 | 1010.5 |
| 20260505210203 | 52 | 266 | 0.0 | 0.0 | 0.06 | 0.27 | 0.27 | 85 | 1010.4 |
| 20260505203702 | 52 | 265 | 0.0 | 0.0 | 0.06 | 0.27 | 0.27 | 85 | 1010.1 |
| 20260505203203 | 52 | 265 | 0.0 | 7.8 | 0.06 | 0.27 | 0.27 | 85 | 1010.0 |
| 20260505200702 | 52 | 260 | 0.0 | 0.0 | 0.00 | 0.21 | 0.21 | 85 | 1009.9 |
| 20260505190202 | 53 | 27 | 0.0 | 0.0 | 0.12 | 0.31 | 0.21 | 84 | 1008.9 |
| 20260505173203 | 60 | 307 | 5.2 | 10.4 | 0.00 | 0.33 | 0.01 | 68 | 1008.5 |
| 20260505170703 | 62 | 241 | 0.0 | 5.2 | 0.00 | 0.33 | 0.01 | 65 | 1008.2 |